QPF
0.00 0.01 0.01 0.01 0.01 0.01 0.01 0.01 0.01 0.01 0.01 0.01 0.01 0.01 0.01 0.01 0.01 0.01 0.00 0.00 0.01 0.01 0.01 0.01 0.01 0.01 0.00 0.00 0.00 0.00 0.00 0.00 0.01 0.00 0.00 0.00 0.00 0.00 0.01 0.01 0.01 0.02 0.02
0.00 0.01 0.01 0.01 0.01 0.01 0.01 0.01 0.01 0.01 0.01 0.01 0.01 0.01 0.00 0.00 0.00 0.00 0.00 0.00 0.01 0.01 0.01 0.00 0.00 0.00 0.00 0.00 0.00 0.00 0.00 0.00 0.00 0.00 0.00 0.00 0.00 0.00 0.01 0.02 0.02 0.03 0.01
0.00 0.00 0.01 0.01 0.01 0.01 0.01 0.01 0.01 0.01 0.01 0.01 0.01 0.01 0.00 0.00 0.00 0.00 0.00 0.01 0.01 0.01 0.01 0.00 0.00 0.00 0.00 0.00 0.00 0.00 0.00 0.00 0.00 0.01 0.01 0.02 0.01 0.01 0.01 0.02 0.02 0.02 0.02
0.00 0.01 0.01 0.01 0.01 0.01 0.01 0.01 0.01 0.01 0.01 0.01 0.01 0.01 0.01 0.01 0.01 0.01 0.00 0.01 0.01 0.01 0.00 0.00 0.00 0.00 0.00 0.00 0.00 0.00 0.00 0.00 0.00 0.00 0.01 0.01 0.01 0.02 0.03 0.03 0.02 0.02 0.02
0.01 0.01 0.01 0.01 0.01 0.02 0.01 0.01 0.01 0.01 0.01 0.01 0.01 0.01 0.01 0.01 0.01 0.01 0.01 0.01 0.00 0.00 0.00 0.00 0.00 0.01 0.01 0.01 0.00 0.00 0.00 0.00 0.00 0.01 0.02 0.01 0.02 0.04 0.05 0.05 0.04 0.03 0.03
0.01 0.00 0.01 0.01 0.01 0.01 0.01 0.01 0.01 0.01 0.01 0.01 0.01 0.01 0.01 0.01 0.01 0.01 0.01 0.01 0.01 0.01 0.00 0.00 0.00 0.01 0.01 0.01 0.00 0.00 0.01 0.01 0.01 0.02 0.02 0.01 0.02 0.03 0.05 0.07 0.06 0.05 0.04
0.00 0.01 0.01 0.01 0.01 0.01 0.01 0.01 0.01 0.01 0.02 0.01 0.01 0.02 0.01 0.01 0.01 0.01 0.01 0.01 0.01 0.01 0.01 0.01 0.01 0.01 0.01 0.01 0.01 0.01 0.01 0.01 0.01 0.02 0.02 0.02 0.04 0.04 0.04 0.06 0.07 0.06 0.05
0.01 0.01 0.01 0.01 0.01 0.01 0.01 0.01 0.01 0.01 0.01 0.01 0.01 0.01 0.01 0.01 0.00 0.01 0.01 0.01 0.02 0.02 0.02 0.01 0.01 0.01 0.01 0.01 0.01 0.01 0.01 0.01 0.00 0.01 0.01 0.02 0.02 0.02 0.03 0.04 0.06 0.07 0.07
0.01 0.01 0.01 0.02 0.02 0.02 0.02 0.02 0.01 0.02 0.02 0.01 0.01 0.01 0.01 0.01 0.01 0.02 0.02 0.03 0.03 0.03 0.03 0.03 0.02 0.02 0.02 0.02 0.01 0.01 0.01 0.01 0.01 0.01 0.00 0.01 0.01 0.02 0.04 0.04 0.06 0.08 0.09
0.01 0.01 0.01 0.02 0.02 0.02 0.02 0.02 0.02 0.02 0.02 0.02 0.02 0.02 0.03 0.03 0.03 0.03 0.03 0.03 0.03 0.03 0.03 0.02 0.02 0.03 0.03 0.03 0.03 0.03 0.03 0.02 0.01 0.01 0.01 0.00 0.01 0.03 0.05 0.08 0.09 0.08 0.10
0.01 0.02 0.02 0.02 0.02 0.02 0.03 0.03 0.03 0.03 0.03 0.03 0.04 0.04 0.03 0.03 0.03 0.03 0.03 0.04 0.03 0.02 0.02 0.02 0.02 0.03 0.03 0.04 0.05 0.05 0.04 0.02 0.01 0.02 0.02 0.02 0.01 0.04 0.07 0.09 0.09 0.09 0.08
0.01 0.02 0.03 0.03 0.03 0.03 0.02 0.03 0.04 0.04 0.04 0.04 0.05 0.04 0.03 0.03 0.03 0.03 0.02 0.03 0.02 0.02 0.02 0.03 0.03 0.03 0.03 0.03 0.04 0.04 0.05 0.03 0.03 0.03 0.03 0.02 0.02 0.04 0.07 0.08 0.08 0.09 0.08
0.01 0.02 0.03 0.03 0.03 0.04 0.04 0.05 0.06 0.05 0.05 0.04 0.03 0.03 0.03 0.03 0.03 0.03 0.03 0.02 0.02 0.02 0.03 0.04 0.04 0.04 0.03 0.03 0.03 0.03 0.03 0.04 0.04 0.03 0.03 0.03 0.03 0.03 0.05 0.06 0.07 0.08 0.08
0.01 0.02 0.03 0.04 0.04 0.05 0.04 0.05 0.05 0.05 0.04 0.04 0.04 0.03 0.03 0.03 0.03 0.02 0.02 0.02 0.02 0.03 0.04 0.04 0.05 0.06 0.05 0.03 0.03 0.02 0.02 0.03 0.04 0.05 0.05 0.04 0.03 0.03 0.05 0.07 0.08 0.08 0.08
0.02 0.04 0.05 0.05 0.04 0.05 0.05 0.05 0.06 0.06 0.04 0.04 0.04 0.04 0.04 0.04 0.04 0.03 0.03 0.03 0.03 0.04 0.04 0.05 0.05 0.06 0.07 0.07 0.04 0.03 0.03 0.03 0.03 0.04 0.04 0.05 0.05 0.05 0.06 0.08 0.10 0.10 0.10
0.03 0.06 0.07 0.08 0.08 0.08 0.08 0.08 0.08 0.07 0.05 0.05 0.04 0.04 0.05 0.05 0.04 0.04 0.05 0.05 0.05 0.04 0.04 0.05 0.05 0.05 0.06 0.05 0.04 0.03 0.03 0.03 0.03 0.03 0.03 0.04 0.04 0.05 0.05 0.06 0.09 0.11 0.11
0.03 0.04 0.05 0.09 0.11 0.12 0.12 0.12 0.11 0.08 0.07 0.06 0.04 0.04 0.05 0.04 0.03 0.04 0.04 0.05 0.05 0.06 0.07 0.07 0.07 0.06 0.05 0.04 0.03 0.03 0.03 0.03 0.03 0.03 0.03 0.03 0.05 0.04 0.04 0.04 0.06 0.09 0.11
0.03 0.04 0.04 0.06 0.09 0.13 0.13 0.11 0.09 0.08 0.08 0.07 0.07 0.06 0.05 0.04 0.04 0.05 0.04 0.04 0.04 0.05 0.06 0.06 0.06 0.05 0.05 0.04 0.04 0.03 0.03 0.03 0.04 0.05 0.05 0.05 0.06 0.05 0.05 0.03 0.04 0.05 0.07
0.04 0.04 0.05 0.07 0.10 0.14 0.16 0.14 0.11 0.10 0.10 0.08 0.08 0.05 0.04 0.04 0.04 0.06 0.05 0.05 0.06 0.06 0.05 0.04 0.03 0.03 0.03 0.04 0.04 0.04 0.04 0.04 0.04 0.05 0.06 0.06 0.07 0.07 0.07 0.03 0.03 0.04 0.05
0.04 0.05 0.06 0.09 0.12 0.15 0.16 0.14 0.11 0.08 0.07 0.07 0.05 0.05 0.05 0.04 0.05 0.07 0.06 0.07 0.07 0.06 0.05 0.04 0.03 0.03 0.03 0.03 0.03 0.03 0.04 0.03 0.03 0.03 0.04 0.05 0.07 0.06 0.05 0.04 0.04 0.04 0.04
0.03 0.05 0.06 0.07 0.09 0.10 0.09 0.07 0.07 0.06 0.06 0.05 0.05 0.05 0.05 0.05 0.06 0.06 0.06 0.06 0.07 0.05 0.05 0.04 0.03 0.03 0.03 0.03 0.03 0.03 0.03 0.02 0.03 0.03 0.04 0.05 0.06 0.05 0.05 0.04 0.05 0.05 0.05
0.03 0.03 0.03 0.04 0.06 0.07 0.06 0.04 0.04 0.05 0.06 0.07 0.06 0.06 0.07 0.07 0.06 0.04 0.04 0.06 0.05 0.04 0.04 0.04 0.04 0.04 0.04 0.04 0.04 0.04 0.04 0.03 0.03 0.03 0.04 0.04 0.05 0.06 0.05 0.05 0.05 0.05 0.05
0.03 0.03 0.03 0.04 0.05 0.04 0.04 0.03 0.04 0.05 0.06 0.08 0.08 0.08 0.08 0.07 0.06 0.04 0.04 0.05 0.05 0.05 0.04 0.04 0.04 0.05 0.04 0.03 0.03 0.04 0.05 0.04 0.03 0.04 0.04 0.04 0.05 0.06 0.05 0.05 0.06 0.06 0.04
0.03 0.03 0.04 0.04 0.05 0.05 0.04 0.04 0.06 0.06 0.05 0.06 0.08 0.07 0.06 0.04 0.05 0.04 0.04 0.04 0.04 0.04 0.04 0.04 0.04 0.04 0.04 0.03 0.03 0.03 0.05 0.06 0.05 0.04 0.04 0.04 0.05 0.06 0.05 0.04 0.04 0.04 0.04
0.03 0.03 0.03 0.04 0.05 0.04 0.04 0.04 0.06 0.05 0.05 0.06 0.05 0.04 0.03 0.03 0.03 0.03 0.03 0.04 0.04 0.05 0.04 0.04 0.04 0.04 0.05 0.05 0.04 0.04 0.03 0.04 0.05 0.05 0.05 0.05 0.05 0.06 0.06 0.05 0.05 0.05 0.04
0.04 0.04 0.03 0.04 0.04 0.04 0.04 0.05 0.06 0.06 0.05 0.04 0.04 0.04 0.05 0.05 0.04 0.04 0.03 0.04 0.04 0.04 0.04 0.04 0.05 0.06 0.05 0.06 0.06 0.05 0.04 0.04 0.04 0.05 0.05 0.07 0.07 0.07 0.06 0.05 0.05 0.05 0.05
MSLP
1010.66 1010.81 1011.14 1011.59 1012.08 1012.53 1012.88 1013.09 1013.19 1013.20 1013.23 1013.32 1013.54 1013.89 1014.34 1014.84 1015.32 1015.72 1016.00 1016.17 1016.23 1016.24 1016.23 1016.24 1016.28 1016.34 1016.39 1016.40 1016.36 1016.26 1016.11 1015.95 1015.82 1015.74 1015.73 1015.79 1015.91 1016.06 1016.22 1016.36 1016.48 1016.57 1016.65
1010.61 1010.77 1011.11 1011.59 1012.14 1012.65 1013.06 1013.33 1013.46 1013.50 1013.53 1013.62 1013.81 1014.13 1014.55 1015.00 1015.44 1015.80 1016.05 1016.18 1016.22 1016.21 1016.21 1016.24 1016.31 1016.41 1016.50 1016.56 1016.54 1016.45 1016.30 1016.11 1015.94 1015.82 1015.77 1015.81 1015.92 1016.08 1016.26 1016.43 1016.58 1016.69 1016.78
1010.56 1010.72 1011.08 1011.60 1012.20 1012.78 1013.26 1013.59 1013.78 1013.86 1013.90 1013.98 1014.15 1014.42 1014.77 1015.16 1015.53 1015.82 1016.01 1016.09 1016.10 1016.08 1016.09 1016.15 1016.26 1016.41 1016.55 1016.65 1016.66 1016.58 1016.41 1016.20 1015.98 1015.81 1015.71 1015.71 1015.80 1015.95 1016.14 1016.33 1016.50 1016.64 1016.75
1010.52 1010.70 1011.09 1011.66 1012.31 1012.95 1013.49 1013.87 1014.11 1014.22 1014.28 1014.35 1014.49 1014.71 1015.00 1015.32 1015.61 1015.82 1015.94 1015.98 1015.96 1015.93 1015.95 1016.03 1016.18 1016.36 1016.54 1016.67 1016.69 1016.61 1016.42 1016.17 1015.91 1015.68 1015.54 1015.49 1015.55 1015.68 1015.86 1016.06 1016.26 1016.42 1016.56
1010.54 1010.76 1011.19 1011.79 1012.48 1013.15 1013.71 1014.13 1014.39 1014.52 1014.59 1014.66 1014.78 1014.97 1015.22 1015.47 1015.70 1015.86 1015.92 1015.91 1015.86 1015.83 1015.84 1015.93 1016.09 1016.29 1016.48 1016.60 1016.62 1016.51 1016.30 1016.02 1015.71 1015.45 1015.26 1015.18 1015.20 1015.31 1015.49 1015.69 1015.89 1016.08 1016.25
1010.64 1010.91 1011.37 1012.00 1012.69 1013.35 1013.91 1014.32 1014.58 1014.71 1014.79 1014.87 1015.00 1015.18 1015.40 1015.63 1015.82 1015.94 1015.97 1015.93 1015.86 1015.80 1015.80 1015.87 1016.02 1016.19 1016.35 1016.45 1016.43 1016.30 1016.06 1015.75 1015.42 1015.13 1014.92 1014.82 1014.82 1014.91 1015.07 1015.26 1015.47 1015.67 1015.86
1010.84 1011.16 1011.64 1012.26 1012.92 1013.54 1014.04 1014.41 1014.64 1014.78 1014.87 1014.97 1015.12 1015.32 1015.56 1015.80 1015.98 1016.08 1016.09 1016.03 1015.94 1015.86 1015.83 1015.86 1015.96 1016.08 1016.19 1016.22 1016.16 1015.98 1015.71 1015.39 1015.05 1014.77 1014.57 1014.46 1014.46 1014.54 1014.68 1014.86 1015.05 1015.25 1015.45
1011.13 1011.49 1011.98 1012.56 1013.15 1013.68 1014.10 1014.40 1014.59 1014.71 1014.82 1014.96 1015.16 1015.41 1015.69 1015.95 1016.15 1016.26 1016.27 1016.19 1016.08 1015.97 1015.90 1015.88 1015.91 1015.96 1015.99 1015.95 1015.82 1015.60 1015.31 1014.99 1014.67 1014.42 1014.24 1014.17 1014.18 1014.25 1014.37 1014.52 1014.68 1014.85 1015.04
1011.48 1011.87 1012.34 1012.85 1013.35 1013.77 1014.09 1014.31 1014.46 1014.57 1014.70 1014.89 1015.15 1015.47 1015.80 1016.10 1016.32 1016.44 1016.45 1016.36 1016.23 1016.09 1015.97 1015.90 1015.86 1015.83 1015.77 1015.66 1015.48 1015.22 1014.92 1014.61 1014.33 1014.12 1014.00 1013.96 1013.99 1014.06 1014.16 1014.26 1014.38 1014.50 1014.65
1011.87 1012.27 1012.70 1013.14 1013.52 1013.83 1014.05 1014.20 1014.31 1014.43 1014.60 1014.84 1015.16 1015.54 1015.91 1016.24 1016.48 1016.60 1016.59 1016.49 1016.34 1016.17 1016.01 1015.89 1015.79 1015.70 1015.58 1015.40 1015.17 1014.89 1014.58 1014.29 1014.06 1013.90 1013.83 1013.83 1013.88 1013.95 1014.02 1014.08 1014.12 1014.18 1014.27
1012.25 1012.65 1013.04 1013.40 1013.69 1013.89 1014.03 1014.13 1014.22 1014.36 1014.57 1014.87 1015.24 1015.66 1016.06 1016.39 1016.62 1016.71 1016.68 1016.56 1016.38 1016.19 1016.01 1015.86 1015.72 1015.59 1015.42 1015.21 1014.94 1014.64 1014.34 1014.07 1013.87 1013.75 1013.72 1013.75 1013.82 1013.88 1013.91 1013.91 1013.88 1013.86 1013.88
1012.61 1013.01 1013.36 1013.64 1013.85 1013.99 1014.08 1014.15 1014.25 1014.42 1014.68 1015.02 1015.43 1015.86 1016.25 1016.55 1016.74 1016.79 1016.72 1016.56 1016.36 1016.16 1015.97 1015.81 1015.67 1015.52 1015.34 1015.10 1014.82 1014.51 1014.20 1013.94 1013.75 1013.66 1013.64 1013.68 1013.75 1013.79 1013.78 1013.73 1013.63 1013.52 1013.46
1012.93 1013.33 1013.65 1013.89 1014.05 1014.15 1014.22 1014.30 1014.43 1014.64 1014.94 1015.32 1015.73 1016.15 1016.50 1016.74 1016.86 1016.85 1016.73 1016.53 1016.32 1016.11 1015.93 1015.79 1015.66 1015.52 1015.33 1015.09 1014.80 1014.47 1014.15 1013.88 1013.68 1013.57 1013.54 1013.57 1013.61 1013.63 1013.58 1013.48 1013.32 1013.15 1013.01
1013.21 1013.61 1013.92 1014.14 1014.28 1014.38 1014.47 1014.59 1014.76 1015.01 1015.34 1015.73 1016.13 1016.49 1016.78 1016.95 1016.99 1016.91 1016.73 1016.51 1016.28 1016.08 1015.93 1015.81 1015.70 1015.58 1015.41 1015.16 1014.85 1014.51 1014.15 1013.84 1013.60 1013.45 1013.38 1013.37 1013.37 1013.36 1013.28 1013.14 1012.95 1012.73 1012.55
1013.46 1013.86 1014.17 1014.39 1014.55 1014.68 1014.80 1014.97 1015.19 1015.48 1015.82 1016.19 1016.55 1016.86 1017.07 1017.16 1017.12 1016.98 1016.77 1016.52 1016.30 1016.11 1015.98 1015.89 1015.80 1015.69 1015.52 1015.27 1014.94 1014.56 1014.16 1013.78 1013.47 1013.26 1013.13 1013.06 1013.02 1012.97 1012.88 1012.73 1012.52 1012.29 1012.08
1013.69 1014.09 1014.40 1014.64 1014.83 1015.00 1015.18 1015.39 1015.65 1015.95 1016.29 1016.63 1016.94 1017.18 1017.31 1017.34 1017.25 1017.07 1016.83 1016.59 1016.37 1016.21 1016.09 1016.01 1015.94 1015.83 1015.64 1015.37 1015.00 1014.57 1014.11 1013.67 1013.29 1012.99 1012.78 1012.65 1012.57 1012.49 1012.39 1012.24 1012.05 1011.84 1011.63
1013.92 1014.31 1014.62 1014.88 1015.10 1015.31 1015.53 1015.78 1016.06 1016.37 1016.69 1016.98 1017.23 1017.40 1017.47 1017.45 1017.33 1017.14 1016.92 1016.70 1016.50 1016.35 1016.24 1016.16 1016.07 1015.93 1015.72 1015.41 1015.00 1014.52 1014.01 1013.50 1013.04 1012.67 1012.39 1012.19 1012.06 1011.96 1011.86 1011.73 1011.57 1011.39 1011.20
1014.16 1014.52 1014.83 1015.09 1015.34 1015.58 1015.84 1016.11 1016.40 1016.68 1016.96 1017.19 1017.37 1017.49 1017.52 1017.47 1017.35 1017.19 1017.00 1016.81 1016.64 1016.51 1016.39 1016.29 1016.16 1015.98 1015.72 1015.37 1014.92 1014.40 1013.84 1013.29 1012.77 1012.33 1011.99 1011.74 1011.56 1011.44 1011.33 1011.23 1011.10 1010.96 1010.80
1014.41 1014.74 1015.02 1015.28 1015.54 1015.80 1016.08 1016.36 1016.63 1016.88 1017.10 1017.27 1017.39 1017.45 1017.45 1017.40 1017.30 1017.18 1017.04 1016.90 1016.76 1016.63 1016.50 1016.36 1016.19 1015.96 1015.65 1015.25 1014.78 1014.24 1013.66 1013.07 1012.53 1012.04 1011.65 1011.34 1011.12 1010.97 1010.85 1010.76 1010.66 1010.55 1010.42
1014.70 1014.97 1015.22 1015.46 1015.72 1015.99 1016.27 1016.54 1016.79 1017.00 1017.15 1017.26 1017.31 1017.32 1017.30 1017.25 1017.19 1017.11 1017.03 1016.93 1016.83 1016.70 1016.55 1016.37 1016.14 1015.86 1015.51 1015.09 1014.60 1014.06 1013.49 1012.92 1012.36 1011.86 1011.42 1011.07 1010.79 1010.59 1010.44 1010.33 1010.23 1010.14 1010.04
1015.00 1015.22 1015.43 1015.64 1015.89 1016.16 1016.44 1016.70 1016.92 1017.09 1017.18 1017.22 1017.21 1017.17 1017.12 1017.08 1017.04 1017.00 1016.96 1016.91 1016.82 1016.70 1016.53 1016.31 1016.04 1015.71 1015.34 1014.91 1014.44 1013.93 1013.40 1012.86 1012.32 1011.80 1011.34 1010.93 1010.58 1010.31 1010.10 1009.94 1009.82 1009.72 1009.63
1015.31 1015.48 1015.65 1015.85 1016.08 1016.35 1016.63 1016.88 1017.08 1017.20 1017.24 1017.22 1017.14 1017.05 1016.97 1016.91 1016.87 1016.86 1016.85 1016.82 1016.75 1016.63 1016.44 1016.19 1015.89 1015.54 1015.16 1014.76 1014.33 1013.87 1013.40 1012.90 1012.40 1011.88 1011.38 1010.91 1010.48 1010.12 1009.81 1009.57 1009.40 1009.27 1009.17
1015.62 1015.75 1015.89 1016.06 1016.29 1016.57 1016.85 1017.10 1017.28 1017.38 1017.38 1017.29 1017.16 1017.01 1016.87 1016.78 1016.73 1016.72 1016.71 1016.69 1016.62 1016.49 1016.30 1016.03 1015.72 1015.37 1015.01 1014.64 1014.26 1013.88 1013.47 1013.04 1012.57 1012.06 1011.53 1010.99 1010.46 1009.98 1009.56 1009.21 1008.96 1008.78 1008.66
1015.89 1016.00 1016.12 1016.28 1016.51 1016.79 1017.08 1017.34 1017.53 1017.61 1017.58 1017.45 1017.26 1017.05 1016.85 1016.71 1016.62 1016.57 1016.55 1016.52 1016.45 1016.31 1016.11 1015.84 1015.53 1015.20 1014.86 1014.54 1014.22 1013.90 1013.57 1013.19 1012.76 1012.25 1011.69 1011.08 1010.45 1009.85 1009.30 1008.84 1008.48 1008.24 1008.10
1016.10 1016.21 1016.32 1016.48 1016.70 1016.99 1017.30 1017.58 1017.78 1017.86 1017.81 1017.65 1017.41 1017.14 1016.88 1016.67 1016.52 1016.43 1016.37 1016.32 1016.23 1016.09 1015.88 1015.62 1015.31 1015.00 1014.69 1014.40 1014.14 1013.88 1013.60 1013.28 1012.88 1012.38 1011.79 1011.12 1010.40 1009.69 1009.02 1008.44 1007.98 1007.67 1007.49
1016.23 1016.34 1016.45 1016.60 1016.83 1017.13 1017.45 1017.75 1017.96 1018.06 1018.01 1017.82 1017.55 1017.23 1016.91 1016.63 1016.42 1016.27 1016.17 1016.08 1015.97 1015.81 1015.60 1015.34 1015.04 1014.73 1014.44 1014.18 1013.95 1013.73 1013.50 1013.21 1012.84 1012.36 1011.75 1011.05 1010.27 1009.47 1008.70 1008.02 1007.47 1007.08 1006.84
Thickness
5808 5803 5790 5787 5785 5783 5782 5781 5779 5777 5775 5773 5770 5767 5764 5762 5760 5758 5756 5754 5753 5751 5750 5749 5748 5747 5746 5745 5745 5744 5744 5743 5743 5743 5743 5742 5742 5741 5740 5740 5740 5742 5739
5810 5801 5789 5785 5782 5781 5779 5778 5776 5774 5772 5769 5767 5764 5761 5759 5757 5755 5753 5751 5750 5749 5747 5746 5745 5744 5743 5742 5742 5741 5741 5740 5740 5740 5740 5740 5740 5739 5738 5737 5738 5740 5736
5807 5798 5787 5783 5780 5778 5776 5774 5772 5770 5768 5766 5763 5761 5758 5756 5754 5752 5750 5748 5747 5745 5744 5743 5742 5741 5740 5739 5738 5738 5737 5737 5737 5737 5738 5742 5742 5738 5736 5735 5734 5734 5732
5802 5795 5789 5781 5778 5775 5773 5771 5769 5767 5764 5762 5760 5757 5755 5753 5750 5748 5746 5745 5743 5742 5740 5739 5738 5738 5736 5736 5735 5735 5734 5734 5734 5734 5739 5743 5742 5737 5734 5732 5731 5730 5729
5798 5792 5785 5778 5775 5772 5770 5768 5766 5763 5761 5758 5756 5753 5751 5749 5747 5745 5743 5741 5739 5738 5737 5736 5735 5734 5733 5732 5732 5731 5731 5731 5731 5733 5739 5740 5739 5734 5731 5729 5729 5728 5727
5794 5789 5782 5775 5772 5769 5766 5764 5762 5759 5757 5754 5752 5749 5747 5745 5743 5741 5739 5737 5736 5734 5733 5732 5731 5730 5730 5729 5729 5728 5728 5728 5729 5736 5737 5736 5736 5732 5728 5727 5726 5725 5725
5792 5787 5780 5772 5768 5765 5763 5760 5758 5756 5753 5751 5748 5745 5743 5741 5739 5737 5735 5734 5732 5731 5730 5729 5728 5727 5726 5726 5725 5725 5725 5726 5729 5734 5735 5734 5733 5729 5726 5725 5724 5723 5723
5789 5785 5776 5768 5764 5761 5759 5756 5754 5751 5749 5746 5744 5742 5739 5737 5735 5733 5731 5730 5728 5727 5726 5726 5724 5723 5722 5722 5722 5722 5721 5721 5727 5731 5731 5731 5728 5725 5723 5722 5722 5722 5721
5786 5782 5775 5768 5762 5758 5755 5753 5750 5748 5745 5742 5740 5737 5735 5733 5730 5729 5727 5726 5724 5723 5722 5721 5721 5720 5719 5718 5718 5718 5718 5718 5722 5728 5729 5728 5724 5721 5720 5719 5719 5719 5718
5781 5778 5774 5769 5764 5759 5754 5749 5746 5743 5741 5738 5735 5733 5730 5728 5726 5725 5724 5722 5720 5720 5719 5717 5716 5716 5715 5715 5714 5714 5715 5715 5721 5724 5725 5724 5719 5717 5716 5716 5716 5716 5716
5775 5773 5771 5767 5762 5759 5755 5749 5744 5740 5737 5734 5732 5729 5726 5727 5726 5723 5721 5718 5716 5715 5714 5713 5713 5712 5712 5712 5712 5711 5712 5717 5721 5720 5720 5717 5714 5713 5713 5712 5712 5712 5712
5768 5768 5767 5763 5760 5756 5753 5747 5743 5740 5735 5733 5731 5728 5726 5724 5722 5721 5717 5714 5712 5711 5710 5709 5709 5709 5710 5713 5713 5710 5712 5714 5716 5716 5715 5712 5710 5709 5709 5709 5709 5709 5709
5766 5763 5762 5759 5755 5752 5748 5744 5741 5738 5733 5731 5727 5724 5722 5720 5719 5717 5715 5713 5711 5710 5710 5709 5709 5709 5710 5709 5709 5710 5710 5711 5711 5711 5711 5707 5705 5704 5704 5704 5704 5705 5705
5763 5760 5757 5754 5750 5746 5744 5741 5737 5734 5731 5728 5724 5721 5719 5717 5715 5714 5711 5711 5709 5708 5706 5706 5705 5705 5704 5704 5704 5705 5705 5705 5706 5706 5705 5702 5700 5700 5700 5700 5700 5700 5700
5759 5755 5752 5748 5744 5740 5737 5735 5732 5729 5727 5723 5720 5717 5715 5714 5711 5710 5708 5705 5705 5703 5702 5700 5700 5699 5699 5699 5699 5700 5700 5700 5700 5701 5701 5698 5696 5695 5695 5695 5696 5696 5696
5755 5751 5748 5744 5740 5736 5733 5729 5727 5725 5721 5720 5716 5713 5710 5709 5706 5705 5703 5700 5699 5697 5696 5694 5693 5692 5693 5692 5693 5693 5693 5694 5694 5693 5695 5694 5691 5690 5689 5690 5690 5691 5691
5752 5749 5744 5740 5736 5732 5728 5725 5723 5720 5717 5714 5711 5708 5705 5703 5700 5699 5698 5696 5694 5691 5689 5688 5687 5687 5687 5687 5686 5686 5687 5688 5688 5687 5688 5688 5688 5685 5684 5684 5684 5685 5685
5750 5745 5741 5739 5733 5728 5724 5720 5718 5715 5712 5709 5706 5703 5700 5697 5695 5693 5692 5690 5687 5686 5685 5684 5683 5682 5681 5681 5681 5681 5682 5682 5681 5681 5681 5681 5681 5681 5680 5679 5679 5679 5680
5747 5742 5738 5734 5729 5724 5719 5715 5712 5708 5704 5703 5700 5698 5694 5691 5689 5687 5686 5683 5681 5681 5679 5678 5677 5675 5674 5673 5675 5675 5676 5677 5676 5676 5675 5674 5674 5674 5674 5674 5673 5674 5674
5744 5739 5734 5729 5724 5720 5716 5711 5707 5704 5700 5697 5695 5691 5688 5686 5683 5681 5680 5677 5675 5675 5672 5670 5667 5667 5666 5666 5668 5669 5669 5670 5670 5670 5669 5668 5667 5667 5668 5669 5669 5669 5669
5739 5735 5730 5725 5720 5715 5710 5706 5702 5698 5696 5693 5690 5685 5682 5680 5677 5675 5675 5671 5669 5668 5665 5663 5661 5661 5660 5659 5659 5661 5663 5665 5663 5662 5662 5661 5661 5661 5661 5662 5662 5663 5664
5735 5731 5726 5721 5716 5711 5706 5702 5698 5694 5691 5688 5684 5679 5676 5674 5672 5671 5667 5666 5664 5661 5659 5656 5654 5653 5653 5652 5651 5651 5654 5657 5656 5658 5655 5654 5654 5654 5655 5655 5655 5656 5657
5731 5727 5723 5717 5711 5706 5701 5698 5693 5688 5685 5682 5678 5675 5671 5668 5666 5663 5661 5660 5657 5656 5654 5650 5647 5645 5645 5645 5644 5642 5642 5644 5646 5649 5647 5647 5646 5647 5648 5648 5649 5649 5650
5728 5724 5719 5713 5707 5701 5697 5693 5689 5685 5681 5677 5673 5670 5666 5663 5661 5658 5656 5653 5651 5650 5647 5645 5643 5640 5637 5638 5638 5636 5635 5634 5633 5637 5639 5640 5640 5640 5641 5642 5643 5643 5643
5724 5719 5714 5708 5702 5697 5693 5689 5684 5681 5677 5673 5668 5664 5661 5659 5656 5653 5651 5648 5646 5645 5642 5638 5635 5633 5633 5631 5631 5630 5630 5629 5628 5626 5628 5630 5633 5635 5636 5636 5637 5637 5637
5719 5714 5709 5703 5697 5693 5689 5685 5680 5675 5671 5666 5663 5660 5657 5655 5652 5649 5646 5643 5641 5639 5636 5633 5629 5627 5626 5624 5624 5625 5624 5623 5623 5623 5622 5623 5624 5628 5629 5631 5631 5632 5632